Regional Weather Roundup
Issued by NWS

Home | Current Version | Previous Version | Graphics & Text | Print | Product List | Glossary On
Versions: 1 2 3 4 5 6 7 8 9 10 11 12 13 14 15 16 17 18 19 20 21 22 23 24 25 26 27 28 29 30 31 32 33 34 35 36 37 38 39 40 41 42 43 44 45 46 47 48 49 50
000
ASUS43 KLMK 210602
RWRKY
KENTUCKY REGIONAL WEATHER ROUNDUP
NATIONAL WEATHER SERVICE LOUISVILLE KY
200 AM EDT SAT OCT 21 2017

NOTE "FAIR" INDICATES FEW OR NO CLOUDS BELOW 12,000 FEET
WITH NO SIGNIFICANT WEATHER AND/OR OBSTRUCTIONS TO VISIBILITY.

KYZ001>023-026-027-061>063-070>075-210700-
WESTERN AND SOUTH CENTRAL KENTUCKY

CITY           SKY/WX    TMP DP  RH WIND       PRES   REMARKS
PADUCAH        PTCLDY    59  47  64 SE5       30.11S
HENDERSON      PTCLDY    53  49  86 E3        30.13F
OWENSBORO      CLOUDY    55  50  83 SE3       30.15S
HOPKINSVILLE   CLOUDY    55  49  81 SE3       30.15S
BOWLING GREEN  PTCLDY    50  49  96 CALM      30.17S
GLASGOW        CLEAR     50  50 100 CALM      30.18S
$$

KYZ024-025-028>034-038-045-046-053-210700-
NORTH CENTRAL KENTUCKY

CITY           SKY/WX    TMP DP  RH WIND       PRES   REMARKS
LOUISVILLE/SDF PTCLDY    58  52  80 SE3       30.17S
LOUISVILLE/LOU CLEAR     54  53  97 CALM      30.18S
FORT KNOX      CLEAR     52  51  99 CALM      30.16S
$$

KYZ035>037-039>044-047>052-055>060-089>105-210700-
NORTHEAST KENTUCKY

CITY           SKY/WX    TMP DP  RH WIND       PRES   REMARKS
LEXINGTON      CLEAR     54  49  83 SE5       30.20S
COVINGTON      MOCLDY    57  54  89 SE5       30.19F
FRANKFORT      CLEAR     50  46  86 CALM      30.19S
$$

KYZ054-064>069-076>088-106>120-210700-
SOUTHEAST KENTUCKY

CITY           SKY/WX    TMP DP  RH WIND       PRES   REMARKS
JACKSON        CLOUDY    60  50  69 E3        30.22F
LONDON         CLOUDY    49  47  93 CALM      30.21F FOG
SOMERSET       NOT AVBL
MIDDLESBORO    CLEAR     46  46 100 CALM      30.26R
MONTICELLO     PTCLDY    48  47  96 W10       30.22S
$$





USA.gov is the U.S. government's official web portal to all federal, state and local government web resources and services.